Wind_Speed
39 42 41 26 26 28 22 25 27 24 22 20 20 17 21 24 22 24 25 24 21 21 17 17 15 15 15 21 31 39 34 17 21 22 25 27 27 27 17 21 12 7 13 11
39 42 27 17 26 29 23 27 25 27 22 18 19 14 14 16 20 24 23 23 22 17 18 14 16 16 15 21 30 38 39 21 21 27 28 26 26 32 27 19 18 18 16 17
39 33 26 25 29 33 25 30 25 31 25 18 18 14 13 19 21 23 22 22 21 16 20 17 13 12 10 14 26 37 42 29 25 25 21 16 17 20 24 24 19 20 22 22
42 29 27 32 30 33 32 30 31 34 26 22 19 18 16 16 20 23 23 18 16 15 15 17 13 11 9 9 21 31 43 42 26 22 21 19 20 22 23 21 20 23 21 29
44 38 34 40 34 33 32 33 31 32 28 25 18 20 19 17 15 18 21 21 20 18 13 13 17 15 12 13 19 30 38 42 31 28 32 23 23 20 21 23 22 25 28 30
44 41 39 42 37 35 32 33 33 32 29 27 20 21 24 18 18 14 20 21 19 14 10 12 13 15 15 17 20 22 27 41 39 34 39 37 29 28 26 23 23 27 30 30
46 42 42 40 43 37 37 34 34 33 32 28 23 25 25 18 19 19 22 18 13 2 12 16 17 16 18 21 22 22 24 30 38 37 34 31 34 32 26 23 24 30 25 23
46 39 42 44 42 37 38 37 38 37 34 32 25 27 24 23 20 20 20 18 10 10 11 17 23 28 31 27 19 15 17 22 29 41 38 38 33 29 29 27 29 19 20 23
49 44 46 44 39 37 39 39 40 37 38 34 29 28 26 24 23 25 25 19 21 18 9 2 16 18 27 24 17 13 4 8 11 19 38 37 35 32 30 30 27 21 22 16
50 48 46 45 41 42 43 42 41 41 38 31 31 31 27 25 26 26 26 26 21 24 26 23 15 10 21 19 14 6 16 11 3 9 14 24 20 31 33 21 23 21 18 15
51 50 48 44 45 49 47 48 45 42 34 34 34 32 28 24 24 26 26 26 23 23 27 13 16 7 22 17 11 14 15 12 4 2 4 7 12 16 17 18 17 15 15 19
51 51 49 47 49 49 48 47 45 39 37 35 35 33 27 23 22 24 25 21 23 23 17 12 6 8 16 19 5 20 12 9 1 23 13 11 11 16 17 17 14 15 18 21
50 45 48 47 48 49 48 43 40 38 38 37 36 32 28 25 24 21 25 26 26 29 16 10 3 4 14 20 10 15 5 9 13 17 19 14 9 13 13 14 17 17 19 21
54 54 52 50 50 50 47 42 41 41 41 37 33 29 30 29 29 28 27 28 27 31 34 20 7 5 4 17 18 8 8 16 19 17 16 12 13 13 16 18 22 18 22 24
50 46 46 45 44 42 42 43 43 41 38 34 33 31 29 28 33 32 32 30 29 25 21 11 5 6 2 10 12 12 22 15 15 15 20 25 20 20 19 20 20 20 22 26
45 43 41 42 43 45 45 47 47 39 37 36 33 32 30 29 30 31 36 34 33 21 18 14 6 7 8 12 10 9 12 21 18 19 13 17 21 23 22 21 20 19 23 27
46 43 42 40 41 43 48 46 43 39 39 39 37 36 32 30 27 30 36 35 39 26 26 16 16 9 8 15 15 18 15 19 23 21 18 12 22 31 34 31 24 24 30 32
46 43 39 37 37 41 44 46 45 43 41 43 40 36 32 27 25 25 31 33 33 25 26 25 14 15 11 8 14 23 19 13 17 19 12 15 11 18 24 31 31 32 31 34
40 40 37 36 40 43 46 52 49 46 44 40 35 31 27 27 14 20 23 27 28 25 26 34 23 19 11 7 12 17 11 11 14 18 11 14 15 21 27 31 31 33 34 36
43 40 35 35 38 47 55 53 50 41 41 39 32 27 22 19 10 12 31 28 26 22 15 22 21 27 15 11 7 13 16 11 18 20 23 22 27 29 30 32 38 38 37 39
42 35 28 28 31 32 34 36 32 30 41 34 30 29 23 23 15 16 21 29 23 20 21 27 27 22 25 19 15 13 19 19 20 20 22 27 29 29 31 35 41 42 40 37
37 32 32 30 29 23 27 31 29 31 30 32 29 34 29 24 24 27 19 17 14 20 29 28 32 35 32 27 25 18 22 31 36 31 29 26 34 38 37 38 46 46 44 40
37 35 31 28 23 18 24 31 36 33 36 37 33 34 29 26 21 30 23 22 22 21 33 31 38 46 47 40 34 33 30 27 34 45 51 52 44 46 45 49 52 50 51 54
41 35 30 30 25 19 20 23 22 35 34 35 34 33 30 29 23 24 22 25 25 27 27 35 41 47 55 60 59 50 44 43 45 43 50 57 61 59 54 55 58 57 57 60
45 40 35 33 29 24 25 28 25 25 29 34 32 34 33 27 23 23 25 30 32 32 31 34 38 41 48 57 62 59 53 52 52 54 48 54 59 54 57 61 64 67 69 69
52 47 44 40 36 33 32 30 31 33 34 36 37 39 39 29 26 26 25 26 28 31 36 34 36 36 36 37 41 44 42 49 52 53 49 43 46 52 60 57 56 59 65 67
Wind_Direction
253 252 253 262 260 259 275 264 268 276 283 280 279 293 298 293 291 288 294 301 296 289 286 284 279 268 244 212 203 213 210 235 246 228 221 228 237 232 270 244 220 245 295 295
252 251 257 249 259 265 269 265 278 283 284 272 274 272 265 280 278 285 291 286 288 285 278 289 277 263 250 233 215 219 227 235 242 231 231 236 248 242 242 222 185 222 250 279
253 254 248 241 265 267 258 261 279 288 291 273 277 274 249 259 275 285 286 290 287 287 291 292 290 287 269 250 228 226 226 222 237 238 230 224 219 224 228 218 220 231 246 276
250 257 252 251 262 260 254 267 273 287 286 275 276 274 258 263 281 288 302 305 307 305 301 283 314 280 300 284 243 243 228 218 216 211 219 220 216 217 220 231 223 246 266 276
239 240 256 246 251 257 257 262 266 280 284 270 273 270 266 274 273 303 301 298 298 299 305 334 336 335 311 301 260 244 234 225 207 210 223 218 218 222 233 240 252 257 264 292
238 237 252 246 245 245 254 256 263 272 279 270 265 260 271 280 290 299 282 293 297 315 25 18 13 8 357 314 289 266 245 230 223 217 229 232 222 217 222 235 259 272 272 290
227 233 248 237 237 247 255 256 265 273 276 273 262 263 267 275 277 278 277 293 279 134 54 42 25 19 6 344 303 276 249 234 229 216 213 214 227 229 233 242 268 274 279 283
230 231 234 239 247 254 255 253 262 272 276 275 261 265 274 270 277 278 276 279 212 165 102 59 36 19 4 354 326 291 253 236 229 215 213 220 219 228 233 237 265 291 286 304
222 227 236 240 243 248 246 252 261 270 275 272 262 262 266 271 271 272 278 285 206 208 228 241 331 350 357 356 344 340 245 199 217 213 224 224 228 234 252 252 266 287 286 291
227 230 237 240 246 249 252 259 265 269 273 264 261 261 262 264 264 268 273 289 218 253 258 247 285 323 9 4 360 40 112 84 109 190 226 246 258 246 261 264 265 280 277 293
231 232 235 242 246 246 254 262 264 267 265 259 261 262 259 260 259 261 267 279 265 262 259 272 228 9 17 1 28 127 99 52 33 263 252 301 274 248 245 257 262 261 274 295
228 235 239 243 243 248 255 261 263 263 260 258 260 260 259 263 255 260 267 273 256 246 219 203 256 58 22 12 39 161 100 33 243 295 275 274 278 269 247 242 248 270 287 302
232 236 242 241 247 252 257 260 255 253 256 255 255 259 266 268 265 263 264 260 246 233 209 191 191 24 31 15 62 171 139 167 179 248 273 261 305 270 248 251 265 281 288 299
231 233 242 244 246 250 253 251 250 250 251 257 260 261 264 272 277 271 267 258 242 237 235 249 261 26 75 25 27 211 200 224 227 236 259 261 264 287 281 281 280 273 286 299
233 234 236 240 246 248 251 250 251 253 256 257 260 263 267 265 270 269 266 251 238 244 238 219 219 157 340 354 5 349 230 244 269 265 273 280 283 293 303 295 289 273 279 288
233 231 235 240 241 241 244 247 251 250 258 261 263 264 262 265 259 254 255 248 234 236 235 228 212 257 294 312 325 346 283 237 243 267 277 290 280 279 304 314 293 274 279 288
230 235 238 241 247 243 244 247 251 257 260 265 264 263 261 252 246 247 247 248 242 241 245 234 234 277 320 319 326 314 300 270 248 253 258 281 282 289 286 287 288 284 287 286
237 240 235 235 239 241 245 249 252 256 263 264 263 260 250 234 236 238 235 237 240 229 225 222 215 246 263 334 311 306 280 258 247 245 260 259 269 284 280 287 288 286 286 282
231 232 232 236 242 247 251 255 258 261 264 257 249 253 216 215 211 226 219 215 234 226 233 223 239 262 237 217 287 282 247 216 241 226 207 222 237 242 264 279 285 289 290 282
222 224 231 243 255 257 257 260 259 252 244 241 245 233 210 194 236 228 207 203 219 232 209 230 238 253 234 237 289 297 216 229 246 230 235 229 231 263 260 274 281 280 279 281
219 222 228 236 249 263 257 252 241 227 229 232 236 229 211 209 245 257 235 206 214 230 240 238 220 221 234 243 270 295 224 229 239 244 246 249 259 246 249 266 271 272 276 277
217 216 234 248 257 259 250 240 241 229 218 220 233 228 214 213 227 236 231 233 241 248 241 244 243 252 252 251 268 275 239 244 244 241 242 248 247 253 258 262 267 268 273 276
211 227 236 244 256 265 264 247 239 231 225 221 232 226 211 215 224 238 237 244 228 255 242 267 270 270 262 270 263 273 259 261 259 252 256 253 251 245 245 249 257 264 268 267
227 231 242 243 247 249 250 258 249 238 225 219 232 232 220 208 220 230 244 257 252 257 277 271 273 268 263 265 271 276 277 259 281 285 256 250 251 251 252 253 253 256 261 265
224 230 237 240 247 242 240 242 238 225 220 224 232 238 215 216 221 230 238 249 260 258 271 272 269 267 270 267 267 273 274 278 283 285 280 260 250 252 257 258 259 262 264 267
226 229 231 235 239 243 243 241 243 242 239 231 236 234 225 228 232 238 243 252 263 269 274 271 264 262 253 257 262 266 270 278 282 287 288 285 273 269 260 257 257 261 267 268
Height
10902 10900 10905 10917 10915 10913 10919 10920 10921 10925 10927 10931 10931 10931 10924 10922 10920 10917 10916 10914 10915 10914 10911 10909 10909 10907 10908 10910 10909 10903 10904 10907 10906 10909 10912 10915 10919 10924 10926 10926 10928 10932 10932 10931
10893 10892 10906 10910 10908 10908 10914 10914 10917 10918 10923 10927 10928 10927 10924 10918 10916 10914 10913 10911 10911 10910 10910 10908 10904 10903 10902 10903 10906 10904 10901 10903 10902 10906 10907 10909 10915 10920 10922 10922 10923 10925 10926 10927
10887 10893 10898 10902 10903 10902 10908 10910 10912 10912 10916 10919 10920 10920 10919 10917 10914 10909 10909 10908 10908 10906 10906 10903 10901 10902 10899 10899 10901 10898 10896 10901 10896 10899 10903 10905 10910 10914 10920 10921 10921 10923 10924 10925
10884 10890 10893 10897 10899 10899 10900 10907 10906 10908 10910 10912 10912 10912 10913 10912 10909 10905 10903 10902 10903 10903 10904 10901 10898 10897 10893 10897 10897 10889 10892 10896 10893 10896 10901 10904 10908 10912 10914 10916 10918 10920 10921 10921
10879 10884 10888 10890 10891 10893 10897 10899 10900 10903 10905 10906 10907 10905 10907 10907 10906 10902 10900 10899 10898 10899 10898 10896 10896 10895 10891 10890 10891 10888 10887 10890 10892 10891 10898 10900 10904 10908 10911 10914 10917 10917 10917 10918
10872 10876 10880 10884 10884 10886 10890 10894 10895 10899 10900 10900 10903 10902 10901 10902 10901 10900 10897 10896 10896 10896 10893 10890 10886 10887 10888 10883 10885 10884 10885 10887 10891 10889 10893 10897 10899 10903 10907 10910 10913 10913 10913 10912
10864 10869 10873 10875 10871 10882 10885 10888 10890 10894 10894 10896 10898 10897 10898 10899 10898 10895 10892 10893 10892 10890 10887 10885 10883 10880 10879 10879 10877 10876 10877 10880 10885 10887 10891 10893 10896 10899 10902 10905 10907 10906 10906 10905
10858 10863 10865 10865 10873 10878 10879 10882 10884 10887 10889 10890 10891 10892 10894 10893 10893 10890 10887 10886 10886 10884 10881 10875 10877 10879 10877 10870 10868 10869 10870 10874 10878 10883 10887 10889 10893 10896 10898 10900 10901 10900 10900 10899
10847 10852 10857 10861 10865 10870 10871 10874 10878 10880 10883 10884 10884 10885 10886 10886 10885 10883 10881 10880 10880 10878 10877 10871 10872 10875 10875 10868 10867 10867 10868 10872 10874 10876 10884 10888 10892 10894 10897 10897 10897 10897 10896 10895
10838 10844 10849 10854 10859 10863 10864 10867 10870 10872 10876 10877 10875 10876 10880 10880 10878 10878 10875 10873 10876 10874 10873 10871 10872 10871 10870 10866 10864 10867 10871 10872 10874 10877 10881 10884 10887 10890 10891 10892 10892 10892 10892 10891
10830 10837 10843 10848 10851 10853 10858 10861 10863 10865 10869 10868 10867 10869 10871 10875 10875 10875 10872 10870 10873 10872 10868 10871 10871 10868 10867 10866 10862 10868 10871 10874 10876 10879 10879 10880 10881 10883 10885 10886 10885 10887 10886 10886
10822 10829 10836 10840 10843 10846 10850 10853 10855 10857 10858 10860 10859 10860 10864 10868 10870 10870 10868 10870 10867 10863 10863 10870 10869 10865 10866 10863 10857 10863 10868 10872 10874 10878 10877 10876 10878 10880 10880 10880 10881 10881 10880 10880
10814 10824 10826 10833 10836 10839 10842 10845 10846 10846 10847 10849 10853 10856 10858 10861 10861 10863 10861 10861 10859 10858 10860 10864 10864 10865 10864 10863 10857 10861 10867 10868 10869 10874 10876 10873 10874 10875 10877 10877 10876 10876 10876 10876
10806 10815 10819 10824 10824 10828 10832 10834 10834 10834 10835 10843 10850 10853 10852 10853 10854 10852 10853 10854 10854 10854 10855 10860 10862 10861 10863 10862 10860 10865 10868 10870 10871 10871 10869 10871 10872 10873 10874 10873 10873 10872 10871 10871
10798 10806 10808 10812 10817 10821 10821 10822 10823 10825 10831 10836 10841 10845 10847 10847 10845 10844 10842 10843 10844 10848 10854 10856 10856 10859 10859 10858 10860 10864 10868 10869 10870 10868 10869 10871 10871 10871 10869 10868 10867 10867 10867 10867
10788 10795 10799 10801 10807 10809 10810 10810 10812 10819 10825 10830 10835 10838 10839 10838 10836 10835 10833 10833 10839 10844 10849 10853 10856 10858 10858 10860 10860 10861 10861 10864 10864 10866 10863 10866 10865 10864 10862 10862 10862 10862 10862 10862
10778 10783 10788 10794 10798 10800 10797 10802 10806 10813 10817 10821 10826 10827 10828 10827 10826 10828 10828 10829 10830 10838 10843 10850 10851 10853 10856 10856 10856 10856 10855 10856 10860 10861 10860 10861 10859 10855 10854 10857 10858 10858 10858 10858
10770 10775 10780 10784 10788 10788 10789 10792 10798 10805 10809 10809 10812 10813 10815 10818 10819 10821 10821 10823 10828 10832 10837 10844 10845 10843 10846 10848 10851 10849 10846 10849 10850 10853 10856 10855 10855 10850 10848 10848 10848 10851 10853 10852
10763 10768 10772 10776 10776 10776 10778 10779 10788 10796 10799 10799 10801 10804 10807 10809 10812 10813 10815 10817 10823 10824 10829 10836 10838 10839 10837 10837 10842 10846 10841 10840 10843 10846 10845 10845 10847 10846 10844 10843 10843 10844 10845 10845
10755 10760 10764 10767 10767 10767 10767 10772 10777 10785 10788 10792 10794 10799 10802 10804 10805 10806 10807 10812 10816 10820 10825 10829 10834 10837 10836 10836 10840 10838 10837 10837 10837 10837 10839 10841 10841 10841 10840 10838 10835 10833 10835 10836
10746 10753 10758 10759 10758 10757 10756 10758 10764 10774 10780 10783 10787 10790 10793 10796 10798 10798 10799 10804 10808 10811 10816 10819 10823 10825 10828 10830 10834 10833 10832 10831 10829 10831 10834 10833 10833 10834 10835 10831 10826 10824 10826 10826
10739 10745 10749 10750 10750 10749 10748 10752 10758 10763 10770 10774 10777 10779 10783 10786 10788 10789 10793 10795 10800 10803 10806 10810 10811 10814 10818 10822 10826 10829 10829 10825 10825 10824 10828 10827 10825 10827 10826 10822 10816 10816 10816 10816
10730 10738 10741 10745 10743 10742 10741 10744 10747 10751 10756 10762 10765 10772 10779 10782 10785 10786 10786 10789 10793 10797 10800 10802 10802 10805 10808 10809 10815 10819 10820 10818 10819 10818 10817 10817 10815 10814 10816 10811 10806 10807 10806 10805
10723 10728 10734 10736 10738 10739 10737 10736 10736 10740 10746 10751 10756 10760 10766 10772 10776 10780 10783 10786 10789 10793 10794 10796 10796 10799 10800 10801 10801 10804 10806 10808 10808 10807 10804 10799 10799 10799 10799 10799 10796 10795 10794 10792
10713 10719 10725 10728 10731 10733 10732 10733 10733 10736 10740 10743 10747 10751 10758 10763 10767 10770 10774 10780 10784 10787 10789 10790 10790 10790 10791 10792 10793 10793 10793 10792 10793 10793 10791 10789 10787 10786 10785 10785 10784 10782 10782 10781
10701 10709 10714 10718 10722 10725 10726 10728 10729 10732 10734 10738 10741 10743 10746 10750 10755 10759 10764 10769 10773 10776 10778 10780 10781 10780 10781 10781 10782 10781 10780 10778 10778 10776 10773 10771 10770 10770 10771 10771 10770 10769 10769 10767